Tracking 18951 objects as of 21-Jan-2018
HD Live streaming from Space Station
objects crossing your sky now

FENGYUN 1C DEB

Track FENGYUN 1C DEB now!
10-day predictions


NORAD ID: 37069
Int'l Code: 1999-025EFD
Perigee: 822.9 km
Apogee: 1,507.0 km
Inclination: 95.8 °
Period: 108.5 minutes
Semi major axis: 7535 km
RCS: 0.0144 m2 (small)
Launch date: May 10, 1999
Source: People's Republic of China (PRC)
Launch site: Taiyaun Space Center, China (TSC)

Note: This is SATELLITE DEBRIS
aabbcc
Your satellite tracking list
Your tracking list is empty




NASA's NSSDC Master Catalog

Two Line Element Set (TLE):
1 37069U 99025EFD 18018.50593224 +.00000667 +00000-0 +87382-3 0  9998
2 37069 095.8491 109.5586 0453935 007.1151 353.6142 13.27073049493489
Source of the keplerian elements: AFSPC